Location: Newark
(46.7000°N, 60.6000°W)
Time: 21:50:56
(UTC+00:00)

Vanguard 1 Rocket - Pass Details

Date: 31 October 2020
Orbit: 656 x 4221 km, 34.3° (Epoch: 30 November)

Event Time Altitude Azimuth Distance (km) Brightness Sun altitude
Rises 13:12:22 0° 224° (SW) 4,029 10.8 19.9°
Reaches altitude 10° 13:16:49 10° 201° (SSW) 2,573 10.2 20.4°
Maximum altitude 13:19:48 14° 169° (S) 2,017 10.6 20.7°
Drops below altitude 10° 13:22:23 10° 135° (SE) 2,151 11.5 20.9°
Sets 13:25:31 0° 109° (ESE) 2,972 11.0 21.3°
